Retour au catalogue

STARLINK-38009

ActifCommunicationsSSO
NORAD 69678·PAYLOAD·🇺🇸 United States

Lancé Jun 25, 2026 depuis Vandenberg Space Force Base

Loading…

Prochains Passages (prochaines 24 heures)

TLE

FraisSource: CelesTrak SupGP

Époque: Sep 14, 2026, 23:03 UTC

1 69678C 26145B   26257.96090278  .00087536  00000+0  27176-2 0  2577
2 69678  97.2849 104.6448 0002168  93.4438 152.2375 15.33389769    12

Suivez STARLINK-38009 en temps réel avec AllMySat

Download on the App Store